Year,Month,Day,Hour,Minute,Value (Times are PST for temperature in C)
2013,04,25,00,00,10.20
2013,04,25,00,01,10.20
2013,04,25,00,02,10.10
2013,04,25,00,03,10.10
2013,04,25,00,04,9.90
2013,04,25,00,05,9.90
2013,04,25,00,06,9.80
2013,04,25,00,07,9.80
2013,04,25,00,08,9.70
2013,04,25,00,09,9.70
2013,04,25,00,10,9.70
2013,04,25,00,11,9.70
2013,04,25,00,12,9.60
2013,04,25,00,13,9.60
2013,04,25,00,14,9.50
2013,04,25,00,15,9.50
2013,04,25,00,16,9.40
2013,04,25,00,17,9.40
2013,04,25,00,18,9.40
2013,04,25,00,19,9.40
2013,04,25,00,20,9.40
2013,04,25,00,21,9.30
2013,04,25,00,22,9.30
2013,04,25,00,23,9.30
2013,04,25,00,24,9.40
2013,04,25,00,25,9.40
2013,04,25,00,26,9.40
2013,04,25,00,27,9.50
2013,04,25,00,28,9.50
2013,04,25,00,29,9.40
2013,04,25,00,30,9.40
2013,04,25,00,31,9.40
2013,04,25,00,32,9.40
2013,04,25,00,33,9.40
2013,04,25,00,34,9.30
2013,04,25,00,35,9.30
2013,04,25,00,36,9.30
2013,04,25,00,37,9.30
2013,04,25,00,38,9.30
2013,04,25,00,39,9.30
2013,04,25,00,40,9.30
2013,04,25,00,41,9.30
2013,04,25,00,42,9.30
2013,04,25,00,43,9.30
2013,04,25,00,44,9.30
2013,04,25,00,45,9.30
2013,04,25,00,46,9.30
2013,04,25,00,47,9.30
2013,04,25,00,48,9.40
2013,04,25,00,49,9.40
2013,04,25,00,50,9.40
2013,04,25,00,51,9.40
2013,04,25,00,52,9.40
2013,04,25,00,53,9.40
2013,04,25,00,54,9.40
2013,04,25,00,55,9.40
2013,04,25,00,56,9.40
2013,04,25,00,57,9.40
2013,04,25,00,58,9.40
2013,04,25,00,59,9.40
2013,04,25,01,00,9.40
2013,04,25,01,01,9.30
2013,04,25,01,02,9.30
2013,04,25,01,03,9.30
2013,04,25,01,04,9.30
2013,04,25,01,05,9.30
2013,04,25,01,06,9.30
2013,04,25,01,07,9.20
2013,04,25,01,08,9.20
2013,04,25,01,09,9.20
2013,04,25,01,10,9.20
2013,04,25,01,11,9.20
2013,04,25,01,12,9.20
2013,04,25,01,13,9.20
2013,04,25,01,14,9.20
2013,04,25,01,15,9.20
2013,04,25,01,16,9.20
2013,04,25,01,17,9.20
2013,04,25,01,18,9.10
2013,04,25,01,19,9.10
2013,04,25,01,20,9.10
2013,04,25,01,21,9.00
2013,04,25,01,22,9.00
2013,04,25,01,23,9.00
2013,04,25,01,24,9.00
2013,04,25,01,25,9.00
2013,04,25,01,26,8.90
2013,04,25,01,27,8.90
2013,04,25,01,28,8.90
2013,04,25,01,29,8.90
2013,04,25,01,30,8.80
2013,04,25,01,31,8.80
2013,04,25,01,32,8.80
2013,04,25,01,33,8.80
2013,04,25,01,34,8.80
2013,04,25,01,35,8.80
2013,04,25,01,36,8.80
2013,04,25,01,37,8.80
2013,04,25,01,38,8.80
2013,04,25,01,39,8.80
2013,04,25,01,40,8.80
2013,04,25,01,41,8.80
2013,04,25,01,42,8.80
2013,04,25,01,43,8.80
2013,04,25,01,44,8.70
2013,04,25,01,45,8.70
2013,04,25,01,46,8.70
2013,04,25,01,47,8.70
2013,04,25,01,48,8.70
2013,04,25,01,49,8.70
2013,04,25,01,50,8.70
2013,04,25,01,51,8.70
2013,04,25,01,52,8.70
2013,04,25,01,53,8.70
2013,04,25,01,54,8.70
2013,04,25,01,55,8.70
2013,04,25,01,56,8.70
2013,04,25,01,57,8.70
2013,04,25,01,58,8.70
2013,04,25,01,59,8.70
2013,04,25,02,00,8.70
2013,04,25,02,01,8.70
2013,04,25,02,02,8.60
2013,04,25,02,03,8.60
2013,04,25,02,04,8.60
2013,04,25,02,05,8.60
2013,04,25,02,06,8.60
2013,04,25,02,07,8.50
2013,04,25,02,08,8.50
2013,04,25,02,09,8.50
2013,04,25,02,10,8.50
2013,04,25,02,11,8.50
2013,04,25,02,12,8.50
2013,04,25,02,13,8.50
2013,04,25,02,14,8.50
2013,04,25,02,15,8.50
2013,04,25,02,16,8.50
2013,04,25,02,17,8.50
2013,04,25,02,18,8.50
2013,04,25,02,19,8.50
2013,04,25,02,20,8.50
2013,04,25,02,21,8.50
2013,04,25,02,22,8.50
2013,04,25,02,23,8.50
2013,04,25,02,24,8.50
2013,04,25,02,25,8.50
2013,04,25,02,26,8.50
2013,04,25,02,27,8.50
2013,04,25,02,28,8.50
2013,04,25,02,29,8.50
2013,04,25,02,30,8.40
2013,04,25,02,31,8.40
2013,04,25,02,32,8.40
2013,04,25,02,33,8.40
2013,04,25,02,34,8.40
2013,04,25,02,35,8.30
2013,04,25,02,36,8.30
2013,04,25,02,37,8.30
2013,04,25,02,38,8.30
2013,04,25,02,39,8.30
2013,04,25,02,40,8.30
2013,04,25,02,41,8.30
2013,04,25,02,42,8.30
2013,04,25,02,43,8.30
2013,04,25,02,44,8.30
2013,04,25,02,45,8.30
2013,04,25,02,46,8.30
2013,04,25,02,47,8.20
2013,04,25,02,48,8.20
2013,04,25,02,49,8.20
2013,04,25,02,50,8.20
2013,04,25,02,51,8.20
2013,04,25,02,52,8.20
2013,04,25,02,53,8.20
2013,04,25,02,54,8.20
2013,04,25,02,55,8.20
2013,04,25,02,56,8.20
2013,04,25,02,57,8.10
2013,04,25,02,58,8.10
2013,04,25,02,59,8.10
2013,04,25,03,00,8.10
2013,04,25,03,01,8.10
2013,04,25,03,02,8.10
2013,04,25,03,03,8.00
2013,04,25,03,04,8.10
2013,04,25,03,05,8.10
2013,04,25,03,06,8.10
2013,04,25,03,07,8.10
2013,04,25,03,08,8.10
2013,04,25,03,09,8.10
2013,04,25,03,10,8.10
2013,04,25,03,11,8.10
2013,04,25,03,12,8.10
2013,04,25,03,13,8.10
2013,04,25,03,14,8.10
2013,04,25,03,15,8.10
2013,04,25,03,16,8.10
2013,04,25,03,17,8.10
2013,04,25,03,18,8.00
2013,04,25,03,19,8.00
2013,04,25,03,20,8.00
2013,04,25,03,21,8.00
2013,04,25,03,22,8.00
2013,04,25,03,23,7.90
2013,04,25,03,24,7.90
2013,04,25,03,25,7.90
2013,04,25,03,26,7.90
2013,04,25,03,27,7.80
2013,04,25,03,28,7.80
2013,04,25,03,29,7.80
2013,04,25,03,30,7.80
2013,04,25,03,31,7.80
2013,04,25,03,32,7.80
2013,04,25,03,33,7.80
2013,04,25,03,34,7.70
2013,04,25,03,35,7.70
2013,04,25,03,36,7.70
2013,04,25,03,37,7.70
2013,04,25,03,38,7.70
2013,04,25,03,39,7.70
2013,04,25,03,40,7.60
2013,04,25,03,41,7.60
2013,04,25,03,42,7.60
2013,04,25,03,43,7.50
2013,04,25,03,44,7.50
2013,04,25,03,45,7.40
2013,04,25,03,46,7.40
2013,04,25,03,47,7.40
2013,04,25,03,48,7.40
2013,04,25,03,49,7.40
2013,04,25,03,50,7.30
2013,04,25,03,51,7.30
2013,04,25,03,52,7.30
2013,04,25,03,53,7.30
2013,04,25,03,54,7.30
2013,04,25,03,55,7.30
2013,04,25,03,56,7.30
2013,04,25,03,57,7.30
2013,04,25,03,58,7.30
2013,04,25,03,59,7.30
2013,04,25,04,00,7.30
2013,04,25,04,01,7.30
2013,04,25,04,02,7.30
2013,04,25,04,03,7.30
2013,04,25,04,04,7.30
2013,04,25,04,05,7.30
2013,04,25,04,06,7.30
2013,04,25,04,07,7.30
2013,04,25,04,08,7.30
2013,04,25,04,09,7.30
2013,04,25,04,10,7.30
2013,04,25,04,11,7.30
2013,04,25,04,12,7.30
2013,04,25,04,13,7.30
2013,04,25,04,14,7.30
2013,04,25,06,30,6.60
2013,04,25,06,31,6.60
2013,04,25,06,32,6.60
2013,04,25,06,33,6.60
2013,04,25,06,34,6.60
2013,04,25,06,35,6.60
2013,04,25,06,36,6.60
2013,04,25,06,37,6.60
2013,04,25,06,38,6.60
2013,04,25,06,39,6.60
2013,04,25,06,40,6.60
2013,04,25,06,41,6.60
2013,04,25,06,42,6.70
2013,04,25,06,43,6.70
2013,04,25,06,44,6.70
2013,04,25,06,45,6.70
2013,04,25,06,46,6.70
2013,04,25,06,47,6.70
2013,04,25,06,48,6.70
2013,04,25,06,49,6.70
2013,04,25,06,50,6.70
2013,04,25,06,51,6.70
2013,04,25,06,52,6.70
2013,04,25,06,53,6.70
2013,04,25,06,54,6.70
2013,04,25,06,55,6.70
2013,04,25,06,56,6.80
2013,04,25,06,57,6.80
2013,04,25,06,58,6.80
2013,04,25,06,59,6.80
2013,04,25,07,00,6.80
2013,04,25,07,01,6.80
2013,04,25,07,02,6.80
2013,04,25,07,03,6.80
2013,04,25,07,04,6.80
2013,04,25,07,05,6.80
2013,04,25,07,06,6.80
2013,04,25,07,07,6.80
2013,04,25,07,08,6.80
2013,04,25,07,09,6.80
2013,04,25,07,10,6.80
2013,04,25,07,11,6.80
2013,04,25,07,12,6.80
2013,04,25,07,13,6.80
2013,04,25,07,14,6.80
2013,04,25,07,15,6.80
2013,04,25,07,16,6.90
2013,04,25,07,17,6.90
2013,04,25,07,18,6.90
2013,04,25,07,19,6.90
2013,04,25,07,20,6.90
2013,04,25,07,21,6.90
2013,04,25,07,22,6.90
2013,04,25,07,23,7.00
2013,04,25,07,24,7.00
2013,04,25,07,25,7.00
2013,04,25,07,26,7.00
2013,04,25,07,27,7.00
2013,04,25,07,28,7.00
2013,04,25,07,29,7.00
2013,04,25,07,30,7.00
2013,04,25,07,31,7.00
2013,04,25,07,32,7.00
2013,04,25,07,33,7.00
2013,04,25,07,34,7.00
2013,04,25,07,35,7.00
2013,04,25,07,36,7.00
2013,04,25,07,37,7.10
2013,04,25,07,38,7.10
2013,04,25,07,39,7.10
2013,04,25,07,40,7.10
2013,04,25,07,41,7.10
2013,04,25,07,42,7.20
2013,04,25,07,43,7.20
2013,04,25,07,44,7.20
2013,04,25,07,45,7.20
2013,04,25,07,46,7.20
2013,04,25,07,47,7.20
2013,04,25,07,48,7.30
2013,04,25,07,49,7.30
2013,04,25,07,50,7.30
2013,04,25,07,51,7.30
2013,04,25,07,52,7.30
2013,04,25,07,53,7.30
2013,04,25,07,54,7.30
2013,04,25,07,55,7.30
2013,04,25,07,56,7.30
2013,04,25,07,57,7.30
2013,04,25,07,58,7.40
2013,04,25,07,59,7.40
2013,04,25,08,00,7.40
2013,04,25,08,01,7.50
2013,04,25,08,02,7.50
2013,04,25,08,03,7.50
2013,04,25,08,04,7.60
2013,04,25,08,05,7.60
2013,04,25,08,06,7.60
2013,04,25,08,07,7.60
2013,04,25,08,08,7.60
2013,04,25,08,09,7.60
2013,04,25,08,10,7.70
2013,04,25,08,11,7.70
2013,04,25,08,12,7.70
2013,04,25,08,13,7.70
2013,04,25,08,14,7.70
2013,04,25,08,15,7.70
2013,04,25,08,16,7.80
2013,04,25,08,17,7.80
2013,04,25,08,18,7.80
2013,04,25,08,19,7.80
2013,04,25,08,20,7.80
2013,04,25,08,21,7.80
2013,04,25,08,22,7.80
2013,04,25,08,23,7.80
2013,04,25,08,24,7.80
2013,04,25,08,25,7.80
2013,04,25,08,26,7.80
2013,04,25,08,27,7.90
2013,04,25,08,28,7.90
2013,04,25,08,29,7.90
2013,04,25,08,30,7.90
2013,04,25,08,31,7.90
2013,04,25,08,32,7.90
2013,04,25,08,33,7.90
2013,04,25,08,34,7.90
2013,04,25,08,35,7.90
2013,04,25,08,36,7.90
2013,04,25,08,37,8.00
2013,04,25,08,38,8.00
2013,04,25,08,39,8.00
2013,04,25,08,40,8.10
2013,04,25,08,41,8.10
2013,04,25,08,42,8.10
2013,04,25,08,43,8.20
2013,04,25,08,44,8.20
2013,04,25,08,45,8.20
2013,04,25,08,46,8.20
2013,04,25,08,47,8.20
2013,04,25,08,48,8.20
2013,04,25,08,49,8.30
2013,04,25,08,50,8.30
2013,04,25,08,51,8.40
2013,04,25,08,52,8.40
2013,04,25,08,53,8.40
2013,04,25,08,54,8.50
2013,04,25,08,55,8.50
2013,04,25,08,56,8.50
2013,04,25,08,57,8.50
2013,04,25,08,58,8.50
2013,04,25,08,59,8.50
2013,04,25,09,00,8.50
2013,04,25,09,01,8.50
2013,04,25,09,02,8.50
2013,04,25,09,03,8.50
2013,04,25,09,04,8.50
2013,04,25,09,05,8.50
2013,04,25,09,06,8.60
2013,04,25,09,07,8.60
2013,04,25,09,08,8.70
2013,04,25,09,09,8.70
2013,04,25,09,10,8.70
2013,04,25,09,11,8.70
2013,04,25,09,12,8.70
2013,04,25,09,13,8.70
2013,04,25,09,14,8.70
2013,04,25,09,15,8.80
2013,04,25,09,16,8.80
2013,04,25,09,17,8.80
2013,04,25,09,18,8.90
2013,04,25,09,19,8.90
2013,04,25,09,20,8.90
2013,04,25,09,21,9.00
2013,04,25,09,22,9.10
2013,04,25,09,23,9.10
2013,04,25,09,24,9.20
2013,04,25,09,25,9.20
2013,04,25,09,26,9.30
2013,04,25,09,27,9.40
2013,04,25,09,28,9.50
2013,04,25,09,29,9.60
2013,04,25,09,30,9.70
2013,04,25,09,31,9.70
2013,04,25,09,32,9.70
2013,04,25,09,33,9.70
2013,04,25,09,34,9.80
2013,04,25,09,35,9.80
2013,04,25,09,36,9.80
2013,04,25,09,37,9.80
2013,04,25,09,38,9.80
2013,04,25,09,39,9.80
2013,04,25,09,40,9.80
2013,04,25,09,41,9.80
2013,04,25,09,42,9.80
2013,04,25,09,43,9.90
2013,04,25,09,44,9.90
2013,04,25,09,45,9.90
2013,04,25,09,46,9.90
2013,04,25,09,47,10.10
2013,04,25,09,48,10.10
2013,04,25,09,49,10.10
2013,04,25,09,50,10.10
2013,04,25,09,51,10.10
2013,04,25,09,52,10.20
2013,04,25,09,53,10.20
2013,04,25,09,54,10.30
2013,04,25,09,55,10.30
2013,04,25,09,56,10.40
2013,04,25,09,57,10.40
2013,04,25,09,58,10.40
2013,04,25,09,59,10.60
2013,04,25,10,00,10.60
2013,04,25,10,01,10.60
2013,04,25,10,02,10.60
2013,04,25,10,03,10.60
2013,04,25,10,04,10.60
2013,04,25,10,05,10.70
2013,04,25,10,06,10.70
2013,04,25,10,07,10.60
2013,04,25,10,08,10.60
2013,04,25,10,09,10.70
2013,04,25,10,10,10.70
2013,04,25,10,11,10.80
2013,04,25,10,12,10.90
2013,04,25,10,13,10.90
2013,04,25,10,14,10.90
2013,04,25,10,15,10.90
2013,04,25,10,16,11.10
2013,04,25,10,17,11.10
2013,04,25,10,18,11.10
2013,04,25,10,19,11.10
2013,04,25,10,20,11.10
2013,04,25,10,21,11.10
2013,04,25,10,22,11.10
2013,04,25,10,23,11.10
2013,04,25,10,24,11.10
2013,04,25,10,25,11.10
2013,04,25,10,26,11.10
2013,04,25,10,27,11.20
2013,04,25,10,28,11.20
2013,04,25,10,29,11.30
2013,04,25,10,30,11.30
2013,04,25,10,31,11.30
2013,04,25,10,32,11.30
2013,04,25,10,33,11.30
2013,04,25,10,34,11.30
2013,04,25,10,35,11.30
2013,04,25,10,36,11.40
2013,04,25,10,37,11.40
2013,04,25,10,38,11.40
2013,04,25,10,39,11.60
2013,04,25,10,40,11.60
2013,04,25,10,41,11.60
2013,04,25,10,42,11.70
2013,04,25,10,43,11.70
2013,04,25,10,44,11.80
2013,04,25,10,45,11.80
2013,04,25,10,46,11.80
2013,04,25,10,47,11.90
2013,04,25,10,48,11.90
2013,04,25,10,49,11.90
2013,04,25,10,50,11.90
2013,04,25,10,51,11.90
2013,04,25,10,52,12.00
2013,04,25,10,53,12.00
2013,04,25,10,54,12.10
2013,04,25,10,55,12.20
2013,04,25,10,56,12.20
2013,04,25,10,57,12.30
2013,04,25,10,58,12.30
2013,04,25,10,59,12.40
2013,04,25,11,00,12.50
2013,04,25,11,01,12.60
2013,04,25,11,02,12.60
2013,04,25,11,03,12.60
2013,04,25,11,04,12.60
2013,04,25,11,05,12.60
2013,04,25,11,06,12.60
2013,04,25,11,07,12.60
2013,04,25,11,08,12.70
2013,04,25,11,09,12.70
2013,04,25,11,10,12.70
2013,04,25,11,11,12.70
2013,04,25,11,12,12.70
2013,04,25,11,13,12.60
2013,04,25,11,14,12.60
2013,04,25,11,15,12.60
2013,04,25,11,16,12.60
2013,04,25,11,17,12.60
2013,04,25,11,18,12.60
2013,04,25,11,19,12.60
2013,04,25,11,20,12.60
2013,04,25,11,21,12.60
2013,04,25,11,22,12.70
2013,04,25,11,23,12.70
2013,04,25,11,24,12.70
2013,04,25,11,25,12.70
2013,04,25,11,26,12.70
2013,04,25,11,27,12.80
2013,04,25,11,28,12.80
2013,04,25,11,29,12.80
2013,04,25,11,30,12.90
2013,04,25,11,31,12.90
2013,04,25,11,32,13.00
2013,04,25,11,33,13.10
2013,04,25,11,34,13.20
2013,04,25,11,35,13.30
2013,04,25,11,36,13.30
2013,04,25,11,37,13.30
2013,04,25,11,38,13.30
2013,04,25,11,39,13.40
2013,04,25,11,40,13.50
2013,04,25,11,41,13.60
2013,04,25,11,42,13.60
2013,04,25,11,43,13.70
2013,04,25,11,44,13.70
2013,04,25,11,45,13.80
2013,04,25,11,46,13.80
2013,04,25,11,47,13.90
2013,04,25,11,48,14.00
2013,04,25,11,49,14.00
2013,04,25,11,50,14.10
2013,04,25,11,51,14.10
2013,04,25,11,52,14.10
2013,04,25,11,53,14.10
2013,04,25,11,54,14.10
2013,04,25,11,55,14.10
2013,04,25,11,56,14.10
2013,04,25,11,57,14.20
2013,04,25,11,58,14.20
2013,04,25,11,59,14.20
2013,04,25,12,00,14.20
2013,04,25,12,01,14.20
2013,04,25,12,02,14.20
2013,04,25,12,03,14.20
2013,04,25,12,04,14.20
2013,04,25,12,05,14.20
2013,04,25,12,06,14.20
2013,04,25,12,07,14.30
2013,04,25,12,08,14.30
2013,04,25,12,09,14.30
2013,04,25,12,10,14.30
2013,04,25,12,11,14.30
2013,04,25,12,12,14.30
2013,04,25,12,13,14.40
2013,04,25,12,14,14.40
2013,04,25,12,15,14.50
2013,04,25,12,16,14.50
2013,04,25,12,17,14.60
2013,04,25,12,18,14.60
2013,04,25,12,19,14.70
2013,04,25,12,20,14.70
2013,04,25,12,21,14.70
2013,04,25,12,22,14.70
2013,04,25,12,23,14.80
2013,04,25,12,24,14.80
2013,04,25,12,25,14.90
2013,04,25,12,26,14.90
2013,04,25,12,27,15.10
2013,04,25,12,28,15.20
2013,04,25,12,29,15.30
2013,04,25,12,30,15.30
2013,04,25,12,31,15.30
2013,04,25,12,32,15.30
2013,04,25,12,33,15.30
2013,04,25,12,34,15.30
2013,04,25,12,35,15.30
2013,04,25,12,36,15.40
2013,04,25,12,37,15.50
2013,04,25,12,38,15.60
2013,04,25,12,39,15.70
2013,04,25,12,40,15.70
2013,04,25,12,41,15.70
2013,04,25,12,42,15.60
2013,04,25,12,43,15.50
2013,04,25,12,44,15.60
2013,04,25,12,45,15.80
2013,04,25,12,46,15.80
2013,04,25,12,47,15.90
2013,04,25,12,48,15.90
2013,04,25,12,49,16.10
2013,04,25,12,50,16.10
2013,04,25,12,51,16.10
2013,04,25,12,52,16.10
2013,04,25,12,53,15.90
2013,04,25,12,54,15.90
2013,04,25,12,55,15.80
2013,04,25,12,56,15.90
2013,04,25,12,57,15.90
2013,04,25,12,58,16.10
2013,04,25,12,59,16.20
2013,04,25,13,00,16.30
2013,04,25,13,01,16.40
2013,04,25,13,02,16.40
2013,04,25,13,03,16.60
2013,04,25,13,04,16.70
2013,04,25,13,05,16.70
2013,04,25,13,06,16.80
2013,04,25,13,07,16.90
2013,04,25,13,08,17.00
2013,04,25,13,09,17.00
2013,04,25,13,10,17.00
2013,04,25,13,11,17.00
2013,04,25,13,12,17.00
2013,04,25,13,13,17.00
2013,04,25,13,14,17.10
2013,04,25,13,15,17.20
2013,04,25,13,16,17.30
2013,04,25,13,17,17.30
2013,04,25,13,18,17.40
2013,04,25,13,19,17.40
2013,04,25,13,20,17.60
2013,04,25,13,21,17.60
2013,04,25,13,22,17.60
2013,04,25,13,23,17.60
2013,04,25,13,24,17.70
2013,04,25,13,25,17.80
2013,04,25,13,26,17.90
2013,04,25,13,27,17.90
2013,04,25,13,28,17.90
2013,04,25,13,29,17.90
2013,04,25,13,30,17.90
2013,04,25,13,31,17.90
2013,04,25,13,32,17.90
2013,04,25,13,33,17.90
2013,04,25,13,34,17.90
2013,04,25,13,35,17.90
2013,04,25,13,36,17.90
2013,04,25,13,37,17.90
2013,04,25,13,38,18.10
2013,04,25,13,39,18.10
2013,04,25,13,40,18.20
2013,04,25,13,41,18.20
2013,04,25,13,42,18.30
2013,04,25,13,43,18.30
2013,04,25,13,44,18.30
2013,04,25,13,45,18.40
2013,04,25,13,46,18.60
2013,04,25,13,47,18.60
2013,04,25,13,48,18.60
2013,04,25,13,49,18.60
2013,04,25,13,50,18.70
2013,04,25,13,51,18.60
2013,04,25,13,52,18.70
2013,04,25,13,53,18.70
2013,04,25,13,54,18.80
2013,04,25,13,55,18.90
2013,04,25,13,56,19.10
2013,04,25,13,57,19.20
2013,04,25,13,58,19.30
2013,04,25,13,59,19.30
2013,04,25,14,00,19.40
2013,04,25,14,01,19.40
2013,04,25,14,02,19.50
2013,04,25,14,03,19.50
2013,04,25,14,04,19.70
2013,04,25,14,05,19.80
2013,04,25,14,06,19.90
2013,04,25,14,07,19.90
2013,04,25,14,08,19.90
2013,04,25,14,09,19.90
2013,04,25,14,10,19.80
2013,04,25,14,11,19.70
2013,04,25,14,12,19.60
2013,04,25,14,13,19.50
2013,04,25,14,14,19.50
2013,04,25,14,15,19.40
2013,04,25,14,16,19.30
2013,04,25,14,17,19.30
2013,04,25,14,18,19.30
2013,04,25,14,19,19.40
2013,04,25,14,20,19.40
2013,04,25,14,21,19.40
2013,04,25,14,22,19.40
2013,04,25,14,23,19.40
2013,04,25,14,24,19.30
2013,04,25,14,25,19.30
2013,04,25,14,26,19.40
2013,04,25,14,27,19.40
2013,04,25,14,28,19.50
2013,04,25,14,29,19.50
2013,04,25,14,30,19.50
2013,04,25,14,31,19.60
2013,04,25,14,32,19.60
2013,04,25,14,33,19.70
2013,04,25,14,34,19.70
2013,04,25,14,35,19.80
2013,04,25,14,36,19.80
2013,04,25,14,37,19.90
2013,04,25,14,38,19.90
2013,04,25,14,39,19.90
2013,04,25,14,40,19.80
2013,04,25,14,41,19.80
2013,04,25,14,42,19.80
2013,04,25,14,43,19.80
2013,04,25,14,44,19.80
2013,04,25,14,45,19.80
2013,04,25,14,46,19.80
2013,04,25,14,47,19.80
2013,04,25,14,48,19.80
2013,04,25,14,49,19.70
2013,04,25,14,50,19.80
2013,04,25,14,51,19.70
2013,04,25,14,52,19.80
2013,04,25,14,53,19.80
2013,04,25,14,54,19.70
2013,04,25,14,55,19.70
2013,04,25,14,56,19.70
2013,04,25,14,57,19.70
2013,04,25,14,58,19.60
2013,04,25,14,59,19.60
2013,04,25,15,00,19.60
2013,04,25,15,01,19.60
2013,04,25,15,02,19.60
2013,04,25,15,03,19.60
2013,04,25,15,04,19.60
2013,04,25,15,05,19.60
2013,04,25,15,06,19.70
2013,04,25,15,07,19.80
2013,04,25,15,08,19.70
2013,04,25,15,09,19.80
2013,04,25,15,10,19.80
2013,04,25,15,11,19.70
2013,04,25,15,12,19.70
2013,04,25,15,13,19.70
2013,04,25,15,14,19.60
2013,04,25,15,15,19.60
2013,04,25,15,16,19.70
2013,04,25,15,17,19.70
2013,04,25,15,18,19.60
2013,04,25,15,19,19.60
2013,04,25,15,20,19.50
2013,04,25,15,21,19.50
2013,04,25,15,22,19.50
2013,04,25,15,23,19.50
2013,04,25,15,24,19.50
2013,04,25,15,25,19.60
2013,04,25,15,26,19.60
2013,04,25,15,27,19.60
2013,04,25,15,28,19.60
2013,04,25,15,29,19.70
2013,04,25,15,30,19.70
2013,04,25,15,31,19.70
2013,04,25,15,32,19.80
2013,04,25,15,33,19.80
2013,04,25,15,34,19.70
2013,04,25,15,35,19.70
2013,04,25,15,36,19.70
2013,04,25,15,37,19.80
2013,04,25,15,38,19.80
2013,04,25,15,39,19.80
2013,04,25,15,40,19.70
2013,04,25,15,41,19.70
2013,04,25,15,42,19.60
2013,04,25,15,43,19.60
2013,04,25,15,44,19.60
2013,04,25,15,45,19.60
2013,04,25,15,46,19.60
2013,04,25,15,47,19.60
2013,04,25,15,48,19.60
2013,04,25,15,49,19.60
2013,04,25,15,50,19.70
2013,04,25,15,51,19.70
2013,04,25,15,52,19.80
2013,04,25,15,53,19.90
2013,04,25,15,54,20.10
2013,04,25,15,55,20.10
2013,04,25,15,56,20.20
2013,04,25,15,57,20.20
2013,04,25,15,58,20.20
2013,04,25,15,59,20.30
2013,04,25,16,00,20.30
2013,04,25,16,01,20.30
2013,04,25,16,02,20.30
2013,04,25,16,03,20.30
2013,04,25,16,04,20.20
2013,04,25,16,05,20.20
2013,04,25,16,06,20.20
2013,04,25,16,07,20.20
2013,04,25,16,08,20.10
2013,04,25,16,09,19.90
2013,04,25,16,10,19.90
2013,04,25,16,11,19.90
2013,04,25,16,12,19.90
2013,04,25,16,13,19.90
2013,04,25,16,14,20.10
2013,04,25,16,15,20.20
2013,04,25,16,16,20.20
2013,04,25,16,17,20.20
2013,04,25,16,18,20.30
2013,04,25,16,19,20.40
2013,04,25,16,20,20.40
2013,04,25,16,21,20.50
2013,04,25,16,22,20.50
2013,04,25,16,23,20.50
2013,04,25,16,24,20.50
2013,04,25,16,25,20.50
2013,04,25,16,26,20.40
2013,04,25,16,27,20.30
2013,04,25,16,28,20.30
2013,04,25,16,29,20.30
2013,04,25,16,30,20.40
2013,04,25,16,31,20.40
2013,04,25,16,32,20.40
2013,04,25,16,33,20.50
2013,04,25,16,34,20.60
2013,04,25,16,35,20.60
2013,04,25,16,36,20.70
2013,04,25,16,37,20.80
2013,04,25,16,38,20.80
2013,04,25,16,39,20.90
2013,04,25,16,40,20.80
2013,04,25,16,41,20.60
2013,04,25,16,42,20.50
2013,04,25,16,43,20.40
2013,04,25,16,44,20.30
2013,04,25,16,45,20.20
2013,04,25,16,46,20.20
2013,04,25,16,47,20.20
2013,04,25,16,48,20.20
2013,04,25,16,49,20.20
2013,04,25,16,50,20.20
2013,04,25,16,51,20.20
2013,04,25,16,52,20.30
2013,04,25,16,53,20.40
2013,04,25,16,54,20.40
2013,04,25,16,55,20.30
2013,04,25,16,56,20.20
2013,04,25,16,57,20.10
2013,04,25,16,58,20.10
2013,04,25,16,59,19.90
2013,04,25,17,00,19.90
2013,04,25,17,01,19.90
2013,04,25,17,02,19.90
2013,04,25,17,03,19.80
2013,04,25,17,04,19.70
2013,04,25,17,05,19.70
2013,04,25,17,06,19.60
2013,04,25,17,07,19.60
2013,04,25,17,08,19.60
2013,04,25,17,09,19.60
2013,04,25,17,10,19.60
2013,04,25,17,11,19.60
2013,04,25,17,12,19.50
2013,04,25,17,13,19.50
2013,04,25,17,14,19.50
2013,04,25,17,15,19.50
2013,04,25,17,16,19.50
2013,04,25,17,17,19.40
2013,04,25,17,18,19.30
2013,04,25,17,19,19.30
2013,04,25,17,20,19.20
2013,04,25,17,21,19.20
2013,04,25,17,22,19.20
2013,04,25,17,23,19.20
2013,04,25,17,24,19.30
2013,04,25,17,25,19.30
2013,04,25,17,26,19.30
2013,04,25,17,27,19.30
2013,04,25,17,28,19.30
2013,04,25,17,29,19.20
2013,04,25,17,30,19.10
2013,04,25,17,31,19.10
2013,04,25,17,32,19.10
2013,04,25,17,33,18.90
2013,04,25,17,34,18.90
2013,04,25,17,35,18.90
2013,04,25,17,36,18.90
2013,04,25,17,37,18.90
2013,04,25,17,38,18.90
2013,04,25,17,39,18.90
2013,04,25,17,40,18.80
2013,04,25,17,41,18.70
2013,04,25,17,42,18.70
2013,04,25,17,43,18.60
2013,04,25,17,44,18.60
2013,04,25,17,45,18.60
2013,04,25,17,46,18.70
2013,04,25,17,47,18.70
2013,04,25,17,48,18.60
2013,04,25,17,49,18.50
2013,04,25,17,50,18.50
2013,04,25,17,51,18.40
2013,04,25,17,52,18.40
2013,04,25,17,53,18.30
2013,04,25,17,54,18.20
2013,04,25,17,55,18.20
2013,04,25,17,56,18.20
2013,04,25,17,57,18.20
2013,04,25,17,58,18.20
2013,04,25,17,59,18.10
2013,04,25,18,00,18.10
2013,04,25,18,01,18.10
2013,04,25,18,02,18.10
2013,04,25,18,03,18.10
2013,04,25,18,04,18.10
2013,04,25,18,05,18.10
2013,04,25,18,06,18.10
2013,04,25,18,07,18.10
2013,04,25,18,08,18.20
2013,04,25,18,09,18.20
2013,04,25,18,10,18.20
2013,04,25,18,11,18.20
2013,04,25,18,12,18.20
2013,04,25,18,13,18.10
2013,04,25,18,14,18.10
2013,04,25,18,15,17.90
2013,04,25,18,16,17.90
2013,04,25,18,17,17.90
2013,04,25,18,18,17.90
2013,04,25,18,19,17.90
2013,04,25,18,20,17.80
2013,04,25,18,21,17.80
2013,04,25,18,22,17.80
2013,04,25,18,23,17.80
2013,04,25,18,24,17.70
2013,04,25,18,25,17.70
2013,04,25,18,26,17.60
2013,04,25,18,27,17.60
2013,04,25,18,28,17.60
2013,04,25,18,29,17.60
2013,04,25,18,30,17.60
2013,04,25,18,31,17.60
2013,04,25,18,32,17.60
2013,04,25,18,33,17.60
2013,04,25,18,34,17.50
2013,04,25,18,35,17.50
2013,04,25,18,36,17.60
2013,04,25,18,37,17.60
2013,04,25,18,38,17.60
2013,04,25,18,39,17.70
2013,04,25,18,40,17.70
2013,04,25,18,41,17.70
2013,04,25,18,42,17.70
2013,04,25,18,43,17.70
2013,04,25,18,44,17.70
2013,04,25,18,45,17.70
2013,04,25,18,46,17.70
2013,04,25,18,47,17.70
2013,04,25,18,48,17.70
2013,04,25,18,49,17.70
2013,04,25,18,50,17.60
2013,04,25,18,51,17.50
2013,04,25,18,52,17.50
2013,04,25,18,53,17.40
2013,04,25,18,54,17.30
2013,04,25,18,55,17.30
2013,04,25,18,56,17.20
2013,04,25,18,57,17.20
2013,04,25,18,58,17.20
2013,04,25,18,59,17.20
2013,04,25,19,00,17.20
2013,04,25,19,01,17.20
2013,04,25,19,02,17.10
2013,04,25,19,03,17.10
2013,04,25,19,04,17.10
2013,04,25,19,05,17.00
2013,04,25,19,06,16.90
2013,04,25,19,07,16.90
2013,04,25,19,08,16.90
2013,04,25,19,09,16.90
2013,04,25,19,10,16.90
2013,04,25,19,11,16.90
2013,04,25,19,12,16.80
2013,04,25,19,13,16.90
2013,04,25,19,14,16.90
2013,04,25,19,15,16.90
2013,04,25,19,16,16.90
2013,04,25,19,17,16.90
2013,04,25,19,18,16.90
2013,04,25,19,19,16.90
2013,04,25,19,20,16.90
2013,04,25,19,21,16.90
2013,04,25,19,22,16.90
2013,04,25,19,23,16.90
2013,04,25,19,24,16.90
2013,04,25,19,25,16.80
2013,04,25,19,26,16.70
2013,04,25,19,27,16.70
2013,04,25,19,28,16.60
2013,04,25,19,29,16.40
2013,04,25,19,30,16.30
2013,04,25,19,31,16.30
2013,04,25,19,32,16.20
2013,04,25,19,33,16.10
2013,04,25,19,34,15.90
2013,04,25,19,35,15.90
2013,04,25,19,36,15.80
2013,04,25,19,37,15.80
2013,04,25,19,38,15.70
2013,04,25,19,39,15.70
2013,04,25,19,40,15.60
2013,04,25,19,41,15.50
2013,04,25,19,42,15.50
2013,04,25,19,43,15.40
2013,04,25,19,44,15.40
2013,04,25,19,45,15.40
2013,04,25,19,46,15.30
2013,04,25,19,47,15.30
2013,04,25,19,48,15.30
2013,04,25,19,49,15.30
2013,04,25,19,50,15.30
2013,04,25,19,51,15.20
2013,04,25,19,52,15.20
2013,04,25,19,53,15.10